GW0605 Weather Reports


time (UTC)temp
F
wind
direction
speed
knots
gust
knots
rain 1hr
in
rain 24hr
in
rain mn
in
humidity
%
barometer
mb
20260507093052 58 5 0.9 4.3 0.00 0.00 0.00 59 1016.1
20260507093036 58 5 0.9 4.3 0.00 0.00 0.00 61 1016.2
20260507092014 57 5 1.7 4.3 0.00 0.00 0.00 61 1016.2
20260507091550 56 5 2.6 8.7 0.00 0.00 0.00 60 1016.1
20260507091036 56 360 1.7 4.3 0.00 0.00 0.00 64 1016.0
20260507090046 56 360 1.7 7.0 0.00 0.00 0.00 62 1016.0
20260507090016 56 356 2.6 7.0 0.00 0.00 0.00 64 1016.1
20260507085016 56 19 0.9 6.1 0.00 0.00 0.00 65 1016.0
20260507084555 56 19 0.0 6.1 0.00 0.00 0.00 65 1015.9
20260507084016 56 19 0.9 6.1 0.00 0.00 0.00 65 1015.9
20260507083056 55 19 1.7 8.7 0.00 0.00 0.00 66 1015.9
20260507083036 55 18 1.7 8.7 0.00 0.00 0.00 66 1015.9
20260507082016 55 17 1.7 7.0 0.00 0.00 0.00 67 1015.8
20260507081551 55 0 0.0 6.1 0.00 0.00 0.00 67 1015.8
20260507081015 55 17 2.6 6.1 0.00 0.00 0.00 67 1015.8
20260507080114 55 18 0.0 5.2 0.00 0.00 0.00 67 1015.7
20260507080015 55 17 0.9 4.3 0.00 0.00 0.00 67 1015.8
20260507075036 54 17 1.7 6.1 0.00 0.00 0.00 68 1015.7
20260507074601 54 18 0.9 4.3 0.00 0.00 0.00 67 1015.6
20260507074016 54 13 1.7 4.3 0.00 0.00 0.00 71 1015.7
20260507073058 53 12 0.0 7.0 0.00 0.00 0.00 72 1015.7
20260507073016 53 12 0.9 6.1 0.00 0.00 0.00 72 1015.7
20260507072016 53 356 1.7 7.0 0.00 0.00 0.00 73 1015.6
20260507071600 52 360 0.9 4.3 0.00 0.00 0.00 73 1015.5
20260507071016 52 354 0.9 5.2 0.00 0.00 0.00 75 1015.5
20260507070048 52 355 2.6 7.0 0.00 0.00 0.00 74 1015.5
20260507070016 52 350 2.6 7.0 0.00 0.00 0.00 76 1015.5
20260507065036 52 355 0.9 4.3 0.00 0.00 0.00 77 1015.5
20260507064555 51 0 0.0 5.2 0.00 0.00 0.00 77 1015.5
20260507064015 51 355 0.0 5.2 0.00 0.00 0.00 79 1015.5
20260507063055 50 343 0.0 3.5 0.00 0.00 0.00 79 1015.4
20260507063016 50 346 0.9 3.5 0.00 0.00 0.00 80 1015.5
20260507062015 49 346 0.9 2.6 0.00 0.00 0.00 82 1015.4
20260507061552 48 0 0.0 2.6 0.00 0.00 0.00 81 1015.3
20260507061015 48 346 0.9 2.6 0.00 0.00 0.00 82 1015.4
20260507060054 47 355 0.0 2.6 0.00 0.00 0.00 83 1015.3
20260507060016 47 355 0.9 2.6 0.00 0.00 0.00 84 1015.3
20260507055015 47 355 0.9 2.6 0.00 0.00 0.00 85 1015.3
20260507054558 46 355 0.0 2.6 0.00 0.00 0.00 85 1015.2
20260507054018 46 355 0.0 1.7 0.00 0.00 0.00 86 1015.1
20260507053049 45 0 0.0 0.9 0.00 0.00 0.00 86 1015.0
20260507053017 45 355 0.0 0.9 0.00 0.00 0.00 87 1015.0
20260507052018 45 355 0.0 0.9 0.00 0.00 0.00 88 1014.9
20260507051552 44 0 0.0 1.7 0.00 0.00 0.00 87 1014.9
20260507051036 44 0.0 0.0 0.00 0.00 0.00 88 1014.8
20260507050051 43 0 0.0 0.0 0.00 0.00 0.00 88 1014.6
20260507050018 43 0.0 0.0 0.00 0.00 0.00 89 1014.8
20260507045018 43 0.0 0.0 0.00 0.00 0.00 89 1014.6
20260507044556 42 0 0.0 0.0 0.00 0.00 0.00 88 1014.5
20260507044017 43 0.0 0.0 0.00 0.00 0.00 89 1014.6
20260507043050 42 0 0.0 0.0 0.00 0.00 0.00 88 1014.4
20260507043018 42 0.0 0.0 0.00 0.00 0.00 89 1014.5
20260507042018 42 0.0 0.0 0.00 0.00 0.00 89 1014.5
20260507041545 42 0 0.0 0.0 0.00 0.00 0.00 88 1014.4
20260507041038 42 0.0 0.0 0.00 0.00 0.00 89 1014.5
20260507040104 42 0 0.0 0.0 0.00 0.00 0.00 88 1014.4
20260507040038 42 0.0 0.0 0.00 0.00 0.00 88 1014.5
20260507035017 42 0.0 0.0 0.00 0.00 0.00 88 1014.4
20260507034557 42 0 0.0 0.0 0.00 0.00 0.00 88 1014.3
20260507034018 42 0.0 0.0 0.00 0.00 0.00 88 1014.4
20260507033053 42 0 0.0 0.0 0.00 0.00 0.00 88 1014.2
20260507033018 43 0.0 0.0 0.00 0.00 0.00 88 1014.3
20260507032037 43 0.0 0.0 0.00 0.00 0.00 88 1014.2
20260507031557 42 0 0.0 0.0 0.00 0.00 0.00 87 1014.2
20260507031018 43 0.0 0.0 0.00 0.00 0.00 88 1014.2
20260507030056 42 0 0.0 0.0 0.00 0.00 0.00 87 1014.1
20260507030017 42 0.0 0.0 0.00 0.00 0.00 88 1014.2
20260507025038 43 0.0 0.0 0.00 0.00 0.00 87 1014.1
20260507024555 42 0 0.0 0.0 0.00 0.00 0.00 86 1014.1
20260507024018 43 0.0 0.0 0.00 0.00 0.00 87 1014.2
20260507023051 43 0 0.0 0.0 0.00 0.00 0.00 86 1014.1
20260507023015 43 0.0 0.0 0.00 0.00 0.00 87 1014.1
20260507022015 44 0.0 0.0 0.00 0.00 0.00 86 1014.1
20260507021550 43 0 0.0 0.0 0.00 0.00 0.00 86 1014.0
20260507021015 44 0.0 0.0 0.00 0.00 0.00 86 1014.0
20260507020015 44 0.0 0.0 0.00 0.00 0.00 86 1014.0
20260507015035 44 0.0 0.0 0.00 0.00 0.00 86 1013.8
20260507014603 44 0 0.0 0.0 0.00 0.00 0.00 86 1013.8
20260507014015 44 0.0 0.0 0.00 0.00 0.00 86 1013.8
20260507013056 44 0 0.0 0.9 0.00 0.00 0.00 85 1013.8
20260507013015 44 355 0.0 0.9 0.00 0.00 0.00 86 1013.9
20260507012015 45 0.0 0.0 0.00 0.00 0.00 86 1013.9
20260507011601 44 0 0.0 0.0 0.00 0.00 0.00 85 1013.8
20260507011015 45 0.0 0.0 0.00 0.00 0.00 86 1013.8
20260507010057 44 0 0.0 0.0 0.00 0.00 0.00 85 1013.7
20260507010015 45 0.0 0.0 0.00 0.00 0.00 86 1013.8
20260507005015 45 0.0 0.0 0.00 0.00 0.00 86 1013.8
20260507004554 44 0 0.0 0.9 0.00 0.00 0.00 85 1013.7
20260507004015 45 355 0.0 0.9 0.00 0.00 0.00 86 1013.8
20260507003054 44 0 0.0 0.9 0.00 0.00 0.00 85 1013.7
20260507003015 45 0.0 0.9 0.00 0.00 0.00 86 1013.8
20260507002015 45 355 0.0 0.9 0.00 0.00 0.00 85 1013.8
20260507001612 44 0 0.0 1.7 0.00 0.00 0.00 85 1013.8
20260507001015 45 355 0.0 1.7 0.00 0.00 0.00 85 1013.8
20260507000100 45 0 0.0 0.0 0.00 0.00 0.00 85 1013.8
20260507000015 45 0.0 0.0 0.00 0.00 0.00 85 1013.8
20260506235015 45 0.0 0.0 0.00 0.00 0.00 85 1013.9
20260506234558 45 0 0.0 0.0 0.00 0.00 0.00 84 1013.8
20260506234015 46 0.0 0.0 0.00 0.00 0.00 84 1013.8
20260506233446 45 0 0.0 0.0 0.00 0.00 0.00 84 1013.8
20260506231018 46 355 0.0 1.7 0.00 0.00 0.00 84 1013.8
20260506230058 46 0 0.0 2.6 0.00 0.00 0.00 83 1013.7
20260506230017 46 355 0.0 2.6 0.00 0.00 0.00 84 1013.7
20260506225017 47 355 0.0 1.7 0.00 0.00 0.00 84 1013.7
20260506224556 46 355 0.0 2.6 0.00 0.00 0.00 84 1013.7
20260506224018 47 355 0.0 2.6 0.00 0.00 0.00 84 1013.6
20260506223112 46 355 0.0 2.6 0.00 0.00 0.00 83 1013.6
20260506223017 47 355 0.0 2.6 0.00 0.00 0.00 84 1013.6
20260506222017 47 355 0.0 2.6 0.00 0.00 0.00 84 1013.6
20260506221556 47 0 0.9 2.6 0.00 0.00 0.00 83 1013.6
20260506221017 47 355 0.0 1.7 0.00 0.00 0.00 83 1013.6
20260506220037 48 355 0.0 3.5 0.00 0.00 0.00 83 1013.5
20260506215017 48 355 0.0 2.6 0.00 0.00 0.00 83 1013.4
20260506214550 48 355 0.0 2.6 0.00 0.00 0.00 82 1013.4
20260506214037 48 355 0.9 2.6 0.00 0.00 0.00 82 1013.4
20260506213047 48 0 0.0 3.5 0.00 0.00 0.00 81 1013.4
20260506213017 48 355 0.9 3.5 0.00 0.00 0.00 82 1013.4
20260506212037 49 355 1.7 5.2 0.00 0.00 0.00 82 1013.2
20260506211553 48 355 0.9 4.3 0.00 0.00 0.00 81 1013.2
20260506211017 49 350 1.7 3.5 0.00 0.00 0.00 81 1013.2
20260506210100 49 0 0.0 4.3 0.00 0.00 0.00 81 1013.1
20260506210017 49 350 0.9 3.5 0.00 0.00 0.00 81 1013.2
20260506205018 50 10 1.7 6.1 0.00 0.00 0.00 81 1013.1
20260506204555 49 17 1.7 7.8 0.00 0.00 0.00 80 1013.0
20260506204017 50 15 2.6 7.8 0.00 0.00 0.00 80 1013.1
20260506203138 50 13 1.7 6.1 0.00 0.00 0.00 79 1013.0
20260506203017 50 12 2.6 6.1 0.00 0.00 0.00 79 1013.0
20260506202017 50 1 2.6 5.2 0.00 0.00 0.00 78 1012.9
20260506201556 50 5 1.7 7.0 0.00 0.00 0.00 78 1012.9
20260506201017 50 20 2.6 7.0 0.00 0.00 0.00 77 1012.8
20260506200055 50 26 2.6 7.8 0.00 0.00 0.00 76 1012.7
20260506200017 51 15 2.6 7.8 0.00 0.00 0.00 76 1012.7
20260506195017 51 6 3.5 7.8 0.00 0.00 0.00 75 1012.6
20260506194558 51 19 2.6 7.8 0.00 0.00 0.00 74 1012.5
20260506194017 51 6 2.6 8.7 0.00 0.00 0.00 74 1012.5
20260506193051 51 11 2.6 6.1 0.00 0.00 0.00 72 1012.3
20260506193017 52 10 2.6 6.1 0.00 0.00 0.00 72 1012.4
20260506192017 52 7 2.6 8.7 0.00 0.00 0.00 71 1012.2
20260506191604 51 0 2.6 8.7 0.00 0.00 0.00 70 1012.1
20260506191017 52 6 3.5 9.6 0.00 0.00 0.00 70 1012.0
20260506190054 52 15 3.5 8.7 0.00 0.00 0.00 69 1011.8
20260506190037 53 12 4.3 8.7 0.00 0.00 0.00 69 1011.9
20260506185017 53 19 5.2 11.3 0.00 0.00 0.00 68 1011.7
20260506184601 53 5 4.3 13.9 0.00 0.00 0.00 68 1011.7
20260506184017 54 11 5.2 13.9 0.00 0.00 0.00 68 1011.6
20260506183111 54 336 3.5 10.4 0.00 0.00 0.00 67 1011.5
20260506183017 54 4 4.3 10.4 0.00 0.00 0.00 67 1011.5
20260506182017 55 357 4.3 12.2 0.00 0.00 0.00 65 1011.5
20260506181545 55 329 5.2 12.2 0.00 0.00 0.00 64 1011.4
20260506181017 56 14 5.2 11.3 0.00 0.00 0.00 60 1011.4
20260506180046 55 355 5.2 11.3 0.00 0.00 0.00 59 1011.2
20260506180017 56 14 6.1 11.3 0.00 0.00 0.00 60 1011.2
20260506175017 56 6 4.3 14.8 0.00 0.00 0.00 59 1011.1
20260506174606 56 360 6.1 14.8 0.00 0.00 0.00 58 1011.1
20260506174017 56 14 5.2 12.2 0.00 0.00 0.00 60 1011.0
20260506173056 56 25 5.2 10.4 0.00 0.00 0.00 59 1010.9
20260506173037 56 3 5.2 10.4 0.00 0.00 0.00 59 1010.9
20260506172017 56 16 5.2 13.0 0.00 0.00 0.00 60 1010.9
20260506171547 55 11 6.1 12.2 0.00 0.00 0.00 59 1010.8
20260506171017 56 18 3.5 11.3 0.00 0.00 0.00 60 1010.8
20260506170051 55 15 4.3 11.3 0.00 0.00 0.00 60 1010.7
20260506170037 56 7 5.2 11.3 0.00 0.00 0.00 61 1010.7
20260506165037 56 13 5.2 13.0 0.00 0.00 0.00 60 1010.7
20260506164557 55 10 6.1 14.8 0.00 0.00 0.00 60 1010.6
20260506164037 57 13 7.0 14.8 0.00 0.00 0.00 61 1010.7
20260506163104 57 30 6.1 15.6 0.00 0.00 0.00 61 1010.6
20260506163017 57 2 6.1 15.6 0.00 0.00 0.00 61 1010.6
20260506162037 58 14 5.2 12.2 0.00 0.00 0.00 62 1010.6
20260506161550 57 86 5.2 13.0 0.00 0.00 0.00 62 1010.5
20260506161017 57 12 5.2 13.0 0.00 0.00 0.00 62 1010.5
20260506160053 57 28 7.0 13.9 0.00 0.00 0.00 61 1010.6
20260506160017 57 18 7.0 13.9 0.00 0.00 0.00 62 1010.6
20260506155017 58 10 5.2 12.2 0.00 0.00 0.00 63 1010.6
20260506154555 57 30 6.1 14.8 0.00 0.00 0.00 62 1010.5
20260506154037 58 15 7.0 14.8 0.00 0.00 0.00 62 1010.5
20260506153057 57 33 5.2 13.9 0.00 0.00 0.00 61 1010.4
20260506153017 58 3 6.1 13.9 0.00 0.00 0.00 61 1010.5
20260506152017 58 12 6.1 13.9 0.00 0.00 0.00 62 1010.4
20260506151556 58 40 5.2 14.8 0.00 0.00 0.00 63 1010.4
20260506151017 58 12 7.0 14.8 0.00 0.00 0.00 62 1010.4
20260506150054 58 48 6.1 13.0 0.00 0.00 0.00 63 1010.4
20260506150037 58 9 5.2 12.2 0.00 0.00 0.00 63 1010.4
20260506145017 58 6 6.1 16.5 0.00 0.00 0.00 63 1010.4
20260506144554 57 346 6.1 12.2 0.00 0.00 0.00 62 1010.3
20260506144017 58 8 7.0 13.0 0.00 0.00 0.00 61 1010.4
20260506143050 58 15 4.3 14.8 0.00 0.00 0.00 61 1010.3
20260506143017 58 27 6.1 14.8 0.00 0.00 0.00 62 1010.3
20260506142017 58 13 7.8 13.0 0.00 0.00 0.00 62 1010.3
20260506141549 58 360 4.3 13.0 0.00 0.00 0.00 62 1010.2
20260506141017 58 7 5.2 12.2 0.00 0.00 0.00 61 1010.3
20260506140047 57 33 5.2 13.9 0.00 0.00 0.00 62 1010.2
20260506140017 57 11 5.2 13.0 0.00 0.00 0.00 62 1010.3
20260506135017 57 17 6.1 13.9 0.00 0.00 0.00 62 1010.3
20260506134552 57 15 6.1 13.0 0.00 0.00 0.00 62 1010.2
20260506134017 57 14 7.8 13.0 0.00 0.00 0.00 61 1010.3
20260506133047 58 324 6.1 14.8 0.00 0.00 0.00 60 1010.2
20260506133017 58 12 7.0 14.8 0.00 0.00 0.00 60 1010.2
20260506132017 58 9 5.2 13.9 0.00 0.00 0.00 61 1010.1
20260506131543 57 19 7.0 13.9 0.00 0.00 0.00 60 1010.1
20260506131017 58 8 6.1 13.9 0.00 0.00 0.00 65 1010.1
20260506130054 57 5 4.3 13.9 0.00 0.00 0.00 65 1010.0
20260506130017 57 10 5.2 13.9 0.00 0.00 0.00 65 1010.1
20260506125017 58 3 5.2 13.0 0.00 0.00 0.00 66 1010.1
20260506124555 57 257 5.2 13.0 0.00 0.00 0.00 65 1010.0
20260506124016 58 358 6.1 11.3 0.00 0.00 0.00 65 1010.1
20260506123057 57 20 5.2 10.4 0.00 0.00 0.00 66 1010.0
20260506123050 57 15 4.3 11.3 0.00 0.00 0.00 64 1010.0
20260506122017 57 14 4.3 8.7 0.00 0.00 0.00 64 1010.0
20260506121554 56 24 4.3 12.2 0.00 0.00 0.00 64 1010.0
20260506121037 56 9 5.2 12.2 0.00 0.00 0.00 65 1010.0
20260506120058 56 327 4.3 13.0 0.00 0.00 0.00 66 1009.8
20260506120015 57 8 5.2 13.0 0.00 0.00 0.00 66 1009.9
20260506115017 56 9 5.2 13.9 0.00 0.00 0.00 66 1009.9
20260506114554 56 16 6.1 13.9 0.00 0.00 0.00 65 1009.9
20260506114016 56 6 4.3 12.2 0.00 0.00 0.00 66 1010.0
20260506113053 56 28 2.6 10.4 0.00 0.00 0.00 66 1010.0
20260506113035 57 12 4.3 10.4 0.00 0.00 0.00 65 1010.0
20260506112036 57 19 4.3 10.4 0.00 0.00 0.00 64 1009.9
20260506111553 56 42 3.5 10.4 0.00 0.00 0.00 64 1009.8
20260506111016 57 9 5.2 11.3 0.00 0.00 0.00 63 1009.9
20260506110015 57 11 5.2 9.6 0.00 0.00 0.00 63 1009.9
20260506105036 57 46 4.3 11.3 0.00 0.00 0.00 63 1009.9
20260506104606 56 61 5.2 13.9 0.00 0.00 0.00 63 1009.9
20260506104017 56 15 6.1 13.9 0.00 0.00 0.00 66 1009.9
20260506103103 56 26 4.3 12.2 0.00 0.00 0.00 66 1009.7
20260506103016 56 7 4.3 12.2 0.00 0.00 0.00 67 1009.9
20260506101613 55 360 4.3 13.9 0.00 0.00 0.00 66 1009.7
20260506101517 56 18 6.1 13.0 0.00 0.00 0.00 67 1009.9
20260506101041 56 19 5.2 13.9 0.00 0.00 0.00 67 1009.9
20260506100051 55 18 3.5 10.4 0.00 0.00 0.00 69 1009.7
20260506100017 55 6 4.3 10.4 0.00 0.00 0.00 71 1009.8
20260506095016 55 16 5.2 13.9 0.00 0.00 0.00 72 1009.8
20260506094600 55 31 1.7 9.6 0.00 0.00 0.00 72 1009.7
20260506094017 54 20 2.6 12.2 0.00 0.00 0.00 72 1009.8